Weather in Kovali

Russia / Chuvash Republic     55°40′44″N   48°03′11″E
temp.,
°C
wind,
m/s
gust,
m/s
humid.,
%
clouds,
%
prec.,
mm/h
press.,
hPa
HPBL,
m
17 june, thu
thu1700:00+15n511863 0.0 1012377
03:00+12nnw48920 0.0 1015152
06:00+14nnw48830 0.0 1016264
09:00+19nw466180 0.0 1017864
12:00+21nw67500 0.0 10182005
15:00+22nw68548 0.0 10182351
18:00+19nnw376996 0.0 1019273
21:00+16nnw411585 0.0 1021451
18 june, fri
fri1800:00+11nnw35770 0.0 102384
03:00+9nnw35830 0.0 102578
06:00+12nnw48761 0.0 1026279
09:00+16n57532 0.0 1027952
12:00+18n57465 0.0 10271485
15:00+20n45455 0.0 10261518
18:00+20nnw12566 0.0 1026439
21:00+14wsw227749 0.0 102715
19 june, sat
sat1900:00+12sw34790 0.0 102761
03:00+12wsw49835 0.0 1027155
06:00+15wsw5128073 0.0 1026315
09:00+20w697195 0.0 1025531
12:00+24w796529 0.0 10241110
15:00+24w7106731 0.0 10231318
18:00+22w713741 0.0 1021542
21:00+19w614810 0.0 1022313
20 june, sun
sun2000:00+17w412870 0.0 1022226
03:00+16w410940 0.0 1022178
06:00+19wnw49860 0.0 1022276
09:00+24wnw56710 0.0 1022600
12:00+27wnw56610 0.0 10221259
15:00+27w56601 0.0 10211118
18:00+25w597669 0.0 1020381
21:00+22w3885100 0.1 1021183
21 june, mon
mon2100:00+20w348571 0.0 102198
03:00+19w228590 0.0 102137
06:00+21w368328 0.0 1022183
09:00+25w45680 0.0 1021520
12:00+27w45595 0.0 10201424
15:00+28wnw55572 0.0 10201677
18:00+25w487499 0.0 1019311
21:00+21w410875 0.0 1019191